STARLINK-1523, 46028

Orbit data source: Space-Track

STARLINK-1523, 46028 is a payload satellite owned by SpaceX/Seattle (US) in LEO that was launched on Fri, 07 Aug 2020 UTC via an FALCON 9 launch vehicle from the Air Force Eastern Test Range (AFETR). Payload-class satellites include a variety of spacecraft equipped with specific instruments for various scientific and technological missions. These include communications satellites like Starlink; space stations such as the ISS; scientific satellites like the Hubble; Earth observation satellites from companies like Planet Labs, Umbra, and HawkEye 360; GPS; miniature CubeSats for education and research; and military/defense satellites.

Loading next visibility...
Identifier
46028, 2020-055B
Orbit
LEO
Country
Flag of USUS
Related business
Manufacturer
SpaceX/Seattle
Mission
Operational Commercial Communications
Bus & Motor
STARLINK, Unknown motor
Mass
260 kg wet, ~248 kg dry
Launch date (UTC)
2020-08-07 (6 years ago)
Launch vehicle
FALCON 9
Launch site
Air Force Eastern Test Range (AFETR)
Object type
Payload
Rocket body
Debris
Shape & HBR
Box + 1 Pan, 10.1 m
Radar Cross Section
13.562 m², Large (>1 m²)

Expand to show TLE details & history
Last TLE update: 21 hours ago

TLE from 21 hours ago
0 STARLINK-1523
1 46028U 20055B   26170.93002950  .00030850  00000-0  10173-2 0  9996
2 46028  53.1613  11.7487 0000098 239.5312 120.5680 15.31204463324551
Epoch: 2026-06-19T22:19Z
TLE epoch observation values (Epoch: 2026-06-19T22:19:14.548Z)
Latitude
Longitude
128.78614°
Altitude
473.152 km
Speed
7.631 km/s
True Right ascension
00h 46m 59s
True Declination
0° 00' 00"
Sunlit
Object was in daylight at epoch
Visualization orbit readout
Latitude
Unknown
Longitude
Unknown
Altitude
Unknown
Speed
Unknown
Apparent Right ascension
Unknown
Apparent Declination
Unknown
Sunlit
N/A
Visualization observer readout
Local Sidereal Time
06:43:02
Azimuth
Unknown
Elevation
Unknown
Doppler factor
Unknown
Orbital elements
Apogee altitude
472.541 km
Perigee altitude
472.407 km
Semi-major axis
6,850.611 km
Eccentricity
0.00001
Inclination
53.1613°
RAAN
11.7487°
Arg. of periapsis
239.5312°
True anomaly
120.56897°
Mean anomaly
120.568°
Eccentric anomaly
120.56848°
Mean motion
3.8278 °/min
Orbital period
94.05 mins
BSTAR
0.0010173
Loading maneuver chart data...
Computing Atmospheric mass density...
Loading historical data...
Loading historical data...
Loading historical data...
Loading historical data...
Loading historical data...
Loading historical data...
Loading historical data...

Documentation

Showing up to 5 results
|